Precipitable_Water
0.56 0.52 0.49 0.46 0.43 0.41 0.41 0.40 0.39 0.39 0.41 0.42 0.35 0.35 0.36 0.31 0.24 0.25 0.22 0.36 0.37 0.37 0.26 0.19 0.17 0.16 0.18 0.17 0.17 0.17 0.11 0.09 0.08 0.08 0.08 0.10 0.09 0.10 0.11 0.09 0.09 0.10 0.10 0.13 0.16
0.54 0.50 0.48 0.46 0.43 0.41 0.41 0.39 0.38 0.39 0.41 0.42 0.37 0.33 0.35 0.28 0.23 0.20 0.31 0.37 0.37 0.31 0.19 0.17 0.15 0.17 0.16 0.16 0.14 0.13 0.10 0.09 0.10 0.10 0.09 0.10 0.09 0.10 0.09 0.09 0.09 0.09 0.12 0.15 0.16
0.54 0.50 0.48 0.45 0.42 0.41 0.40 0.38 0.38 0.41 0.41 0.42 0.36 0.34 0.35 0.32 0.21 0.21 0.31 0.33 0.32 0.26 0.21 0.20 0.19 0.18 0.16 0.16 0.14 0.12 0.10 0.11 0.11 0.12 0.12 0.10 0.10 0.11 0.09 0.08 0.09 0.09 0.11 0.14 0.15
0.56 0.51 0.47 0.43 0.42 0.41 0.40 0.39 0.39 0.40 0.40 0.41 0.40 0.31 0.29 0.26 0.19 0.24 0.31 0.31 0.29 0.25 0.21 0.20 0.19 0.18 0.15 0.13 0.14 0.12 0.13 0.13 0.13 0.13 0.12 0.10 0.11 0.10 0.10 0.09 0.10 0.11 0.13 0.13 0.14
0.58 0.55 0.50 0.46 0.44 0.42 0.40 0.39 0.41 0.38 0.39 0.39 0.39 0.32 0.30 0.25 0.24 0.28 0.31 0.29 0.26 0.24 0.22 0.21 0.20 0.18 0.15 0.14 0.15 0.13 0.13 0.14 0.15 0.14 0.13 0.13 0.11 0.10 0.09 0.11 0.12 0.12 0.12 0.12 0.14
0.57 0.54 0.51 0.47 0.45 0.43 0.42 0.41 0.41 0.42 0.38 0.39 0.34 0.35 0.30 0.25 0.31 0.32 0.31 0.29 0.26 0.24 0.22 0.22 0.21 0.19 0.17 0.15 0.15 0.15 0.15 0.15 0.15 0.14 0.14 0.13 0.12 0.12 0.10 0.12 0.12 0.12 0.12 0.13 0.14
0.59 0.56 0.54 0.51 0.47 0.45 0.43 0.42 0.42 0.40 0.37 0.38 0.34 0.33 0.33 0.31 0.36 0.34 0.32 0.30 0.29 0.26 0.21 0.23 0.24 0.21 0.19 0.16 0.17 0.16 0.15 0.16 0.15 0.15 0.14 0.15 0.12 0.11 0.12 0.13 0.12 0.12 0.12 0.12 0.14
0.64 0.62 0.57 0.53 0.51 0.47 0.42 0.41 0.42 0.40 0.41 0.38 0.36 0.35 0.32 0.38 0.39 0.34 0.32 0.31 0.32 0.29 0.25 0.24 0.24 0.23 0.20 0.18 0.18 0.17 0.16 0.15 0.18 0.17 0.17 0.16 0.13 0.13 0.14 0.13 0.12 0.12 0.12 0.12 0.12
0.67 0.66 0.62 0.58 0.55 0.50 0.45 0.46 0.45 0.40 0.39 0.41 0.38 0.35 0.31 0.38 0.34 0.34 0.32 0.30 0.31 0.30 0.25 0.23 0.23 0.23 0.23 0.18 0.19 0.17 0.16 0.16 0.19 0.21 0.18 0.17 0.14 0.15 0.15 0.14 0.13 0.14 0.13 0.12 0.12
0.68 0.68 0.66 0.62 0.58 0.53 0.47 0.44 0.44 0.41 0.39 0.41 0.41 0.37 0.34 0.31 0.33 0.34 0.32 0.32 0.28 0.27 0.22 0.22 0.22 0.21 0.22 0.21 0.16 0.17 0.17 0.19 0.19 0.22 0.20 0.18 0.17 0.17 0.17 0.17 0.15 0.15 0.14 0.13 0.13
0.68 0.67 0.66 0.62 0.57 0.51 0.46 0.41 0.37 0.38 0.40 0.36 0.34 0.33 0.30 0.31 0.34 0.32 0.32 0.29 0.28 0.23 0.19 0.21 0.20 0.19 0.21 0.22 0.22 0.22 0.20 0.20 0.23 0.24 0.22 0.19 0.19 0.19 0.20 0.19 0.16 0.16 0.15 0.15 0.14
0.69 0.66 0.64 0.61 0.55 0.52 0.49 0.41 0.41 0.42 0.33 0.36 0.36 0.34 0.31 0.29 0.28 0.31 0.34 0.28 0.26 0.22 0.22 0.21 0.20 0.23 0.24 0.25 0.24 0.24 0.22 0.24 0.26 0.26 0.23 0.21 0.20 0.21 0.20 0.19 0.18 0.18 0.17 0.17 0.17
0.71 0.68 0.63 0.62 0.55 0.52 0.48 0.45 0.47 0.42 0.31 0.33 0.32 0.29 0.27 0.27 0.26 0.26 0.30 0.30 0.29 0.27 0.24 0.22 0.24 0.26 0.25 0.25 0.25 0.26 0.24 0.25 0.24 0.26 0.25 0.22 0.22 0.21 0.21 0.22 0.21 0.21 0.21 0.21 0.20
0.72 0.69 0.64 0.63 0.54 0.47 0.38 0.41 0.41 0.42 0.24 0.27 0.26 0.28 0.28 0.27 0.24 0.30 0.30 0.28 0.29 0.27 0.28 0.28 0.29 0.27 0.26 0.25 0.25 0.23 0.26 0.25 0.26 0.24 0.19 0.22 0.17 0.22 0.20 0.21 0.22 0.22 0.23 0.23 0.23
0.69 0.62 0.59 0.53 0.45 0.37 0.35 0.38 0.36 0.41 0.14 0.27 0.26 0.34 0.31 0.30 0.32 0.31 0.31 0.30 0.27 0.24 0.25 0.23 0.25 0.24 0.24 0.23 0.23 0.23 0.27 0.25 0.25 0.22 0.19 0.21 0.20 0.24 0.20 0.22 0.24 0.25 0.25 0.27 0.27
0.65 0.57 0.54 0.49 0.46 0.42 0.42 0.40 0.41 0.22 0.12 0.23 0.29 0.29 0.30 0.33 0.33 0.36 0.34 0.38 0.38 0.31 0.30 0.26 0.28 0.26 0.26 0.26 0.25 0.25 0.25 0.25 0.24 0.20 0.18 0.20 0.23 0.23 0.22 0.25 0.28 0.29 0.28 0.30 0.30
0.58 0.53 0.51 0.50 0.38 0.46 0.45 0.37 0.20 0.12 0.23 0.20 0.22 0.27 0.27 0.30 0.32 0.34 0.33 0.34 0.33 0.31 0.31 0.34 0.31 0.32 0.31 0.28 0.27 0.28 0.26 0.21 0.19 0.20 0.19 0.23 0.24 0.27 0.28 0.28 0.31 0.32 0.31 0.32 0.33
0.47 0.46 0.48 0.45 0.46 0.47 0.42 0.26 0.12 0.19 0.20 0.25 0.26 0.30 0.28 0.32 0.32 0.33 0.33 0.31 0.35 0.35 0.32 0.28 0.26 0.32 0.34 0.32 0.29 0.27 0.25 0.23 0.17 0.18 0.18 0.23 0.22 0.28 0.32 0.30 0.33 0.34 0.36 0.36 0.35
0.37 0.39 0.46 0.46 0.47 0.48 0.34 0.17 0.18 0.21 0.24 0.24 0.26 0.25 0.28 0.32 0.33 0.35 0.34 0.32 0.34 0.36 0.32 0.30 0.29 0.36 0.36 0.34 0.34 0.28 0.25 0.27 0.24 0.22 0.19 0.22 0.28 0.33 0.33 0.33 0.35 0.36 0.38 0.39 0.38
0.34 0.37 0.42 0.49 0.45 0.43 0.28 0.20 0.22 0.25 0.26 0.27 0.23 0.26 0.26 0.29 0.30 0.31 0.32 0.34 0.34 0.37 0.38 0.34 0.29 0.34 0.34 0.35 0.35 0.30 0.30 0.25 0.26 0.20 0.19 0.23 0.26 0.28 0.34 0.34 0.37 0.39 0.41 0.43 0.45
0.35 0.29 0.43 0.48 0.45 0.35 0.21 0.22 0.24 0.28 0.28 0.25 0.24 0.26 0.26 0.27 0.29 0.29 0.31 0.35 0.36 0.37 0.38 0.36 0.34 0.34 0.36 0.31 0.31 0.29 0.29 0.27 0.28 0.27 0.23 0.21 0.24 0.39 0.38 0.39 0.39 0.41 0.44 0.47 0.49
0.28 0.19 0.47 0.46 0.28 0.30 0.23 0.24 0.27 0.27 0.29 0.28 0.28 0.28 0.26 0.27 0.27 0.30 0.32 0.36 0.40 0.41 0.37 0.38 0.35 0.32 0.33 0.34 0.35 0.32 0.31 0.31 0.27 0.25 0.26 0.25 0.23 0.43 0.43 0.42 0.41 0.44 0.48 0.50 0.51
0.23 0.28 0.46 0.42 0.22 0.22 0.23 0.23 0.27 0.26 0.27 0.28 0.28 0.28 0.30 0.31 0.32 0.35 0.37 0.40 0.43 0.42 0.39 0.40 0.38 0.30 0.32 0.31 0.34 0.31 0.30 0.31 0.30 0.29 0.25 0.24 0.25 0.42 0.44 0.43 0.45 0.44 0.49 0.51 0.51
0.27 0.19 0.28 0.34 0.31 0.24 0.21 0.24 0.25 0.31 0.32 0.35 0.35 0.38 0.39 0.41 0.42 0.39 0.39 0.42 0.45 0.44 0.44 0.42 0.37 0.37 0.30 0.31 0.34 0.31 0.32 0.31 0.31 0.27 0.27 0.27 0.28 0.34 0.41 0.41 0.41 0.45 0.48 0.49 0.49
0.35 0.26 0.33 0.24 0.31 0.30 0.35 0.33 0.32 0.32 0.38 0.40 0.38 0.39 0.41 0.38 0.40 0.42 0.45 0.45 0.46 0.45 0.45 0.39 0.33 0.35 0.35 0.34 0.33 0.32 0.32 0.31 0.30 0.31 0.27 0.29 0.31 0.35 0.38 0.36 0.39 0.41 0.43 0.44 0.48
0.41 0.39 0.42 0.38 0.38 0.39 0.40 0.36 0.36 0.42 0.45 0.42 0.41 0.45 0.45 0.43 0.45 0.44 0.47 0.47 0.45 0.45 0.42 0.43 0.36 0.33 0.30 0.31 0.30 0.28 0.28 0.29 0.31 0.32 0.30 0.31 0.26 0.39 0.39 0.38 0.37 0.41 0.42 0.42 0.45
0.62 0.62 0.54 0.46 0.42 0.41 0.42 0.43 0.47 0.49 0.49 0.51 0.50 0.48 0.47 0.49 0.51 0.53 0.52 0.50 0.46 0.42 0.40 0.38 0.35 0.30 0.24 0.27 0.27 0.23 0.25 0.27 0.30 0.34 0.32 0.28 0.35 0.40 0.36 0.35 0.36 0.39 0.43 0.42 0.44
Wind_Speed
4 4 3 3 3 4 5 6 7 7 7 8 7 3 4 7 11 9 10 9 9 10 8 6 5 5 7 7 8 7 7 7 8 10 12 13 17 17 19 20 22 22 25 27 27
4 4 3 2 3 3 5 5 7 8 8 8 8 6 2 3 7 12 10 11 11 10 7 7 5 7 6 7 8 8 8 8 10 11 12 15 16 19 19 21 22 23 24 26 25
4 3 3 2 3 3 4 5 6 8 9 9 7 8 6 3 3 9 12 12 11 10 6 6 5 6 6 8 9 9 8 8 10 12 14 15 17 18 20 21 22 24 25 25 25
4 3 3 3 3 3 4 5 4 5 7 9 10 6 8 5 4 10 13 12 11 11 6 8 6 6 6 7 9 7 8 10 11 13 14 17 19 18 19 20 23 24 27 26 24
5 4 3 2 2 2 3 4 5 4 6 8 11 8 5 8 8 11 12 12 9 9 10 7 7 5 5 6 8 9 9 10 11 14 16 18 18 19 20 22 23 25 25 25 24
5 4 3 2 2 2 3 4 5 4 5 7 8 11 7 7 11 13 12 11 11 9 9 9 6 5 6 7 9 9 10 11 12 15 17 19 20 18 18 20 22 24 25 25 25
5 5 4 3 2 3 3 3 5 4 4 7 7 6 12 9 12 14 12 10 10 10 7 7 7 6 6 6 8 9 10 12 14 18 17 22 16 16 17 20 22 24 26 26 25
5 5 4 3 3 3 3 2 4 4 7 6 7 6 8 11 13 15 13 10 11 10 7 6 6 7 8 6 9 11 11 15 16 20 16 21 17 16 17 20 24 25 25 26 25
6 4 5 4 4 3 2 3 5 3 5 8 7 6 8 11 14 16 14 12 11 9 8 5 5 7 8 8 9 13 14 16 18 18 19 19 21 17 18 20 24 24 25 26 26
7 5 4 5 5 4 1 3 5 5 4 6 9 6 10 13 15 17 14 13 11 10 6 6 6 7 11 13 11 14 16 16 19 21 20 23 24 23 22 21 22 23 24 25 27
7 6 5 5 7 4 3 3 3 4 9 7 8 8 11 14 13 19 15 12 11 9 7 6 7 9 11 12 12 15 16 19 21 21 25 19 27 25 22 20 19 21 23 25 26
8 7 6 4 6 5 5 4 4 2 5 8 8 10 12 12 14 19 17 11 12 10 8 5 7 9 10 12 16 17 17 20 22 20 25 23 29 22 18 17 18 21 23 25 27
8 8 7 5 6 7 7 5 4 4 5 7 9 11 13 12 13 18 18 12 12 11 11 7 8 10 12 14 18 17 18 21 23 28 19 25 19 20 16 19 21 23 25 27 28
8 9 8 6 5 7 7 6 6 5 4 10 11 11 12 11 11 15 16 13 12 11 10 8 9 12 13 15 17 19 19 22 28 25 19 21 19 21 18 21 23 24 25 27 29
8 9 8 8 6 8 7 7 6 5 4 10 10 12 12 12 13 15 14 12 12 11 11 10 11 13 14 15 18 19 24 25 23 19 20 17 20 20 20 23 23 24 25 27 29
8 9 8 8 8 8 8 7 6 6 6 8 10 13 10 13 12 15 14 14 12 11 13 12 12 13 16 18 18 22 22 21 19 18 17 17 21 22 19 21 23 24 25 28 30
8 8 9 9 9 9 9 8 7 7 8 10 11 13 10 13 12 16 15 14 14 14 16 14 12 14 16 19 17 22 21 21 19 19 20 18 21 21 23 23 24 26 27 29 31
8 8 9 10 10 10 9 8 7 8 9 10 11 11 10 14 12 15 14 12 14 16 15 16 14 16 18 18 19 20 19 18 20 23 27 20 18 21 22 24 26 28 29 31 33
8 7 8 12 11 10 9 9 8 8 10 12 11 10 10 11 13 15 14 12 15 18 17 18 15 16 19 19 20 18 18 19 19 21 22 21 24 30 22 23 26 28 30 33 34
8 8 9 13 12 10 9 7 8 10 11 11 11 11 12 15 15 16 13 13 14 17 18 17 20 17 18 20 17 17 17 19 20 21 23 24 26 24 27 25 26 29 33 36 37
9 9 11 13 11 10 9 9 10 11 12 13 12 12 12 14 15 15 15 16 16 18 19 18 17 19 20 19 15 17 18 19 21 21 21 26 26 23 26 27 30 33 37 40 40
11 11 13 13 11 11 10 11 12 12 13 13 13 13 14 16 16 15 17 17 17 18 19 17 20 22 22 19 18 19 20 20 21 19 21 25 28 25 28 30 32 37 40 42 41
12 13 13 13 11 12 12 13 13 13 14 14 14 15 16 17 18 18 18 19 18 18 18 18 18 24 19 16 21 20 21 23 22 23 23 22 27 28 32 33 36 38 41 43 43
13 13 14 13 13 13 15 14 15 16 16 16 16 17 17 19 19 20 21 19 19 20 20 20 20 19 21 26 23 23 22 24 22 24 25 27 40 43 37 38 39 41 42 45 45
15 14 15 16 16 16 17 17 17 17 17 18 18 19 19 20 21 21 21 21 20 20 19 20 23 24 27 32 31 32 30 24 25 27 26 39 33 43 41 44 43 44 46 47 46
17 17 17 18 18 19 19 19 19 19 18 19 20 20 21 23 23 27 23 22 22 20 20 21 24 26 29 27 25 31 26 29 28 30 34 39 45 41 42 41 43 45 46 49 49
20 20 20 20 20 21 21 20 22 21 22 23 24 24 26 27 26 26 26 25 24 22 21 22 24 26 28 23 34 24 26 25 26 26 27 29 34 34 41 44 45 49 48 50 50
Wind_Direction
60 58 68 78 50 38 34 34 31 29 28 25 25 26 39 37 35 37 30 2 353 347 348 342 351 350 3 5 6 357 358 358 350 344 347 342 340 339 337 333 335 333 331 333 333
46 48 57 62 47 43 37 42 37 30 27 25 26 27 351 2 20 31 8 359 354 351 357 357 348 356 357 357 355 355 354 351 349 346 345 340 338 338 338 336 334 332 332 334 334
32 39 47 53 55 47 47 43 36 35 36 29 21 25 17 355 360 3 357 355 354 352 344 346 339 347 358 354 352 350 351 351 348 345 342 339 336 338 336 337 336 335 336 334 333
38 44 53 67 65 61 51 32 23 24 23 22 18 10 26 16 355 350 349 350 351 356 344 349 337 341 348 354 349 352 352 345 342 341 340 336 335 334 330 336 338 336 335 334 331
40 41 42 52 49 32 14 11 14 3 9 16 20 17 12 19 3 345 344 347 346 350 1 341 354 340 349 349 348 354 343 342 339 342 338 333 328 327 327 331 335 336 336 335 332
30 26 23 18 357 345 345 348 355 360 14 14 13 24 13 12 350 348 346 348 352 349 355 -0 357 4 6 349 347 345 346 341 337 336 334 334 329 332 331 336 336 337 336 335 332
27 29 25 24 17 11 4 16 19 25 7 359 359 6 28 17 357 351 349 348 348 348 341 353 355 347 337 341 346 348 343 340 340 335 332 334 326 322 331 335 334 334 335 334 330
22 28 26 31 28 17 8 357 343 353 3 354 357 358 8 0 356 353 348 341 342 341 335 332 348 5 349 343 344 343 337 340 339 339 331 334 329 325 326 331 332 333 334 335 332
20 21 23 27 11 356 6 18 10 348 354 6 355 350 358 354 357 353 349 342 336 338 342 329 335 354 348 334 339 348 333 334 333 339 329 336 321 325 321 323 327 333 336 337 336
25 24 17 16 7 354 342 353 2 6 344 347 4 344 355 347 347 350 347 346 342 333 326 337 337 343 352 352 341 330 330 330 327 336 328 318 310 310 312 314 318 329 334 336 337
22 18 15 14 10 15 360 331 333 353 24 17 359 358 345 344 349 355 351 345 348 356 340 336 356 346 344 345 340 329 324 321 327 334 332 324 317 314 314 310 313 323 329 334 336
19 16 13 15 21 12 4 350 333 335 13 3 358 354 351 345 349 356 354 352 356 357 334 331 342 326 326 330 331 328 323 325 328 333 331 325 319 322 321 316 315 322 326 328 331
21 22 18 15 12 14 17 5 349 326 338 351 351 349 348 346 357 353 0 357 1 359 357 345 330 322 318 322 330 326 323 328 326 329 331 327 323 327 323 320 319 318 322 325 326
18 17 15 13 10 7 8 2 350 339 343 350 349 350 346 350 355 355 360 360 4 0 350 346 331 325 320 323 331 328 331 328 327 332 332 338 329 330 323 321 317 316 320 323 324
19 18 21 26 18 9 4 358 358 354 350 344 346 345 349 1 345 356 357 356 358 356 346 347 336 332 326 334 331 329 329 326 328 327 331 336 331 328 327 325 320 318 319 323 325
14 15 12 8 10 3 356 354 353 348 341 349 344 348 349 358 359 353 358 3 355 348 352 345 338 337 333 329 326 328 326 326 328 331 330 335 337 327 325 328 330 326 323 324 326
358 359 4 358 352 349 347 344 342 359 341 341 340 344 344 347 352 357 358 0 359 350 351 340 338 337 335 330 330 331 327 329 330 332 329 332 324 316 321 321 325 327 325 325 326
341 342 351 354 348 344 341 337 354 335 335 335 333 332 339 343 344 347 346 348 354 347 341 344 334 338 335 337 331 335 334 336 325 327 323 330 322 328 322 324 324 325 325 325 324
332 333 339 345 342 340 336 347 336 332 330 330 327 328 331 336 334 336 342 338 340 343 343 336 327 332 335 333 332 332 328 330 327 325 324 325 325 320 325 320 322 324 325 325 324
321 322 332 336 335 335 339 339 332 330 329 327 331 327 325 330 331 337 333 330 330 333 333 329 322 332 330 329 337 327 329 326 329 325 323 322 325 319 322 323 323 326 326 326 325
310 308 321 327 326 331 335 329 325 325 326 328 325 321 321 321 323 324 323 324 323 327 329 326 323 327 327 321 323 327 325 328 325 321 319 324 325 326 321 322 321 324 325 324 323
303 303 315 319 319 322 323 321 320 318 320 320 319 316 314 315 314 315 316 318 319 321 323 324 321 318 325 326 324 324 323 319 319 319 318 320 318 328 324 322 321 320 323 324 322
299 300 309 312 311 314 311 312 312 313 313 313 311 312 312 312 313 311 313 320 317 318 318 319 320 320 322 324 325 319 320 319 317 316 306 313 317 326 322 321 320 320 322 325 324
296 297 304 310 309 308 306 307 307 308 309 310 309 310 311 309 306 310 311 315 312 314 314 313 314 307 305 310 318 312 311 308 305 309 310 299 307 319 321 322 323 322 322 324 324
298 294 297 300 305 305 304 302 304 304 305 305 305 301 306 309 308 305 307 309 309 310 314 312 310 307 302 303 304 303 304 300 295 295 301 306 305 311 316 320 320 321 322 324 324
290 291 292 295 297 299 300 296 297 301 301 300 299 302 299 302 300 306 306 305 307 309 306 310 311 314 313 316 307 310 308 303 298 299 298 299 305 307 311 317 318 320 320 323 323
288 289 290 289 292 295 295 295 296 298 297 299 297 298 298 298 300 302 302 304 302 303 301 306 310 315 311 319 315 316 317 310 313 309 310 308 307 322 319 318 317 320 319 320 321